This is the latest recevied weather packets stored in our database for station/object DJ5CM-10. If no packets are shown the sender has not sent any weather packets the latest 10 day(s).
| Time | Temp. | Humidity | Pressure | Rain* | Wind** | Luminosity | Snow |
|---|---|---|---|---|---|---|---|
| 1777742578 | 22.78° C | 31% | 1012.6 hPa | - | - | - | - |
| 1777741678 | 23.33° C | 30% | 1012.7 hPa | - | - | - | - |
| 1777740778 | 24.44° C | 29% | 1012.7 hPa | - | - | - | - |
| 1777739878 | 25° C | 27% | 1012.7 hPa | - | - | - | - |
| 1777738977 | 26.11° C | 25% | 1012.8 hPa | - | - | - | - |
| 1777738077 | 26.67° C | 23% | 1012.8 hPa | - | - | - | - |
| 1777737177 | 27.78° C | 22% | 1012.7 hPa | - | - | - | - |
| 1777736277 | 28.33° C | 21% | 1012.9 hPa | - | - | - | - |
| 1777735467 | 29.44° C | 20% | 1012.9 hPa | - | - | - | - |
| 1777735377 | 29.44° C | 20% | 1012.9 hPa | - | - | - | - |
| 1777734477 | 30° C | 20% | 1013.2 hPa | - | - | - | - |
| 1777733577 | 30° C | 18% | 1013.4 hPa | - | - | - | - |
| 1777732677 | 31.11° C | 18% | 1013.7 hPa | - | - | - | - |
| 1777731777 | 35° C | 21% | 1013.9 hPa | - | - | - | - |
| 1777730876 | 33.89° C | 21% | 1013.9 hPa | - | - | - | - |
| 1777729976 | 32.78° C | 21% | 1013.9 hPa | - | - | - | - |
| 1777729076 | 32.78° C | 22% | 1013.9 hPa | - | - | - | - |
| 1777728176 | 32.22° C | 22% | 1014.1 hPa | - | - | - | - |
| 1777727276 | 31.11° C | 27% | 1014.2 hPa | - | - | - | - |
| 1777726376 | 25.56° C | 31% | 1014.4 hPa | - | - | - | - |
| 1777725476 | 24.44° C | 30% | 1014.6 hPa | - | - | - | - |
| 1777724576 | 24.44° C | 32% | 1014.6 hPa | - | - | - | - |
| 1777723676 | 23.89° C | 34% | 1014.8 hPa | - | - | - | - |
| 1777722775 | 23.89° C | 36% | 1014.9 hPa | - | - | - | - |
| 1777721876 | 23.33° C | 38% | 1015.2 hPa | - | - | - | - |
* Rain since midnight (hover to see other rain measurements)
** Current wind speed in m/s (hover to see current wind gust speed)